Погода в Таушкасах

Россия / Чувашская Республика     55°51′42″N   47°34′22″E
темп.,
°C
ветер,
м/с
пор.,
м/с
влажн.,
%
обл.,
%
осадки,
мм/ч
давл.,
гПа
погр.,
м
16 мая, вс
вс1600:00+17ю35685 0.0 101568
03:00+16ююв33695 0.0 101542
06:00+17ю387062 0.0 1015203
09:00+22ююз575778 0.0 1015501
12:00+26юз574972 0.0 10151137
15:00+26юз5852100 0.0 10151587
18:00+23юз367092 0.1 1015177
21:00+18юз22825 0.1 101515
17 мая, пн
пн1700:00+17зюз228583 0.0 101613
03:00+16зюз118976 0.0 101711
06:00+19зюз118025 0.0 101891
09:00+23в01645 0.0 1018563
12:00+26зюз235056 0.0 10181218
15:00+28ююз244324 0.0 10171788
18:00+26з226045 0.0 101740
21:00+20св22705 0.0 101812
18 мая, вт
вт1800:00+18юв227499 0.0 101811
03:00+17в117499 0.0 101811
06:00+20вюв2272100 0.0 101873
09:00+25юв3449100 0.0 1018358
12:00+27ююв4540100 0.0 10171090
15:00+28ююв3435100 0.0 10171904
18:00+24юв3554100 0.0 101673
21:00+20вюв4652100 0.0 101760
19 мая, ср
ср1900:00+17юв5147032 0.0 1017240
03:00+16юв5127642 0.0 1017214
06:00+18вюв5127638 0.0 1017307
09:00+23юв711605 0.0 1016551
12:00+26юв7104997 0.0 10161025
15:00+27юв710525 0.0 10151525
18:00+24юв410637 0.0 1013262
21:00+20юв81867100 0.0 1013446
20 мая, чт
чт2000:00+19ююв817609 0.0 1013465
03:00+18ююв61570100 0.1 1013390
06:00+18юв5127356 0.0 1012279
09:00+22ююв9156568 0.0 1011842
12:00+24ю91460100 0.9 10102090
15:00+18юз8148590 3.8 10131202
18:00+17зюз611745 0.2 10151093
21:00+13зюз4118288 0.2 1017334